Weather History for KAEL - October, 2012

Change the Weather History Date:

Monday, October 8, 2012

  Actual Average Record
Temperature  
Mean Temperature 52 °F -  
Max Temperature 64 °F 62 °F 86 °F (2010)
Min Temperature 39 °F 39 °F 21 °F (2000)
Degree Days  
Heating Degree Days 14    
Growing Degree Days 2 (Base 50)    
Moisture  
Dew Point 31 °F    
Average Humidity 52    
Maximum Humidity 93    
Minimum Humidity 26    
Precipitation  
Precipitation 0.07 in - - ()
Sea Level Pressure  
Sea Level Pressure 29.79 in    
Wind  
Wind Speed 11 mph (SSW)    
Max Wind Speed 22 mph    
Max Gust Speed 34 mph    
Visibility 10 miles    
Events Rain    
Averages and records for this station are not official NWS values.
T = Trace of Precipitation, MM = Missing Value Source: NWS Daily Summary

Daily Weather History Graph

Daily Weather History Graph

Search for Another Location

Airport or City:

Trip Planner

Search our weather history database for the weather conditions in past years. The results will help you decide how hot, cold, wet, or windy it might be!

Date:

Astronomy

Oct. 08, 2012 Rise Set
Actual Time 7:19 AM CDT 6:41 PM CDT
Civil Twilight 6:51 AM CDT 7:09 PM CDT
Nautical Twilight 6:17 AM CDT 7:42 PM CDT
Astronomical Twilight 5:44 AM CDT 8:16 PM CDT
Moon No Moon Rise 2:42 PM CDT (10/8)
Length of Visible Light 12h 18m
Length of Day
11h 21m
Last Quarter, 46% of the Moon is Illuminated
Oct 8
Last Quarter
Oct 15
New
Oct 21
First Quarter
Oct 29
Full
Nov 6
Last Quarter

Hourly Weather History & Observations

Time (CDT) Temp. Windchill Dew Point Humidity Pressure Visibility Wind Dir Wind Speed Gust Speed Precip Events Conditions
12:13 AM 42.8 °F 37.5 °F 24.8 °F 49% 29.93 in 10.0 mi SSW 9.2 mph - N/A   Clear
12:33 AM 42.8 °F 37.5 °F 24.8 °F 49% 29.92 in 10.0 mi SSW 9.2 mph - N/A   Clear
12:52 AM 42.8 °F 37.5 °F 24.8 °F 49% 29.92 in 10.0 mi SSW 9.2 mph - N/A   Clear
1:13 AM 42.8 °F 37.5 °F 24.8 °F 49% 29.91 in 10.0 mi South 9.2 mph - N/A   Clear
1:33 AM 42.8 °F 37.0 °F 24.8 °F 49% 29.91 in 10.0 mi SSW 10.4 mph - N/A   Clear
1:52 AM 42.8 °F 37.0 °F 24.8 °F 49% 29.90 in 10.0 mi South 10.4 mph - N/A   Clear
2:13 AM 42.8 °F 37.5 °F 24.8 °F 49% 29.90 in 10.0 mi South 9.2 mph 18.4 mph N/A   Clear
2:33 AM 42.8 °F 36.2 °F 24.8 °F 49% 29.89 in 10.0 mi SSW 12.7 mph 16.1 mph N/A   Clear
2:52 AM 42.8 °F 37.0 °F 26.6 °F 53% 29.88 in 10.0 mi SSW 10.4 mph 17.3 mph N/A   Clear
3:13 AM 41.0 °F 35.8 °F 26.6 °F 57% 29.87 in 10.0 mi SSW 8.1 mph - N/A   Clear
3:33 AM 41.0 °F 34.7 °F 26.6 °F 57% 29.87 in 10.0 mi SSW 10.4 mph 17.3 mph N/A   Clear
3:52 AM 41.0 °F 35.2 °F 26.6 °F 57% 29.87 in 10.0 mi SSW 9.2 mph 17.3 mph N/A   Clear
4:13 AM 39.2 °F 32.5 °F 26.6 °F 61% 29.87 in 10.0 mi SSW 10.4 mph 17.3 mph N/A   Clear
4:33 AM 39.2 °F 33.0 °F 26.6 °F 61% 29.86 in 10.0 mi SSW 9.2 mph 18.4 mph N/A   Clear
4:52 AM 39.2 °F 31.6 °F 28.4 °F 65% 29.86 in 10.0 mi SSW 12.7 mph 17.3 mph N/A   Clear
5:12 AM 39.2 °F 32.0 °F 28.4 °F 65% 29.86 in 10.0 mi SSW 11.5 mph 17.3 mph N/A   Clear
5:33 AM 39.2 °F 33.6 °F 28.4 °F 65% 29.85 in 10.0 mi SSW 8.1 mph - N/A   Scattered Clouds
5:52 AM 39.2 °F 34.2 °F 28.4 °F 65% 29.85 in 10.0 mi SSW 6.9 mph - N/A   Mostly Cloudy
6:12 AM 39.2 °F 33.0 °F 28.4 °F 65% 29.85 in 10.0 mi SSW 9.2 mph - N/A   Overcast
6:33 AM 39.2 °F 32.0 °F 28.4 °F 65% 29.84 in 10.0 mi SSW 11.5 mph 16.1 mph N/A   Scattered Clouds
6:52 AM 39.2 °F 32.5 °F 30.2 °F 70% 29.84 in 10.0 mi SSW 10.4 mph - N/A   Scattered Clouds
7:12 AM 39.2 °F 33.0 °F 30.2 °F 70% 29.84 in 10.0 mi SSW 9.2 mph 17.3 mph N/A   Scattered Clouds
7:33 AM 39.2 °F 32.5 °F 30.2 °F 70% 29.84 in 10.0 mi SSW 10.4 mph - N/A   Scattered Clouds
7:52 AM 39.2 °F 32.5 °F 30.2 °F 70% 29.84 in 10.0 mi SSW 10.4 mph 16.1 mph N/A   Mostly Cloudy
8:12 AM 39.2 °F 32.5 °F 30.2 °F 70% 29.84 in 10.0 mi SSW 10.4 mph 19.6 mph N/A   Scattered Clouds
8:33 AM 41.0 °F 34.7 °F 30.2 °F 65% 29.83 in 10.0 mi SSW 10.4 mph - N/A   Scattered Clouds
8:52 AM 42.8 °F 36.6 °F 32.0 °F 66% 29.82 in 10.0 mi South 11.5 mph - N/A   Clear
9:13 AM 42.8 °F 37.0 °F 32.0 °F 66% - 10.0 mi South 10.4 mph 18.4 mph N/A   Clear
9:33 AM 44.6 °F 38.4 °F 32.0 °F 61% 29.82 in 10.0 mi SSW 12.7 mph 19.6 mph N/A   Unknown
9:52 AM 44.6 °F 39.7 °F 33.8 °F 66% 29.82 in 10.0 mi SSW 9.2 mph - N/A   Scattered Clouds
10:13 AM 44.6 °F - 33.8 °F 66% 29.81 in 10.0 mi North - - N/A   Scattered Clouds
10:32 AM 46.4 °F 41.5 °F 33.8 °F 62% 29.81 in 10.0 mi SSW 10.4 mph 17.3 mph N/A   Scattered Clouds
10:53 AM 46.4 °F 40.7 °F 33.8 °F 62% 29.80 in 10.0 mi SSW 12.7 mph 18.4 mph N/A   Mostly Cloudy
11:13 AM 50.0 °F - 33.8 °F 54% 29.79 in 10.0 mi SSW 16.1 mph 19.6 mph N/A   Mostly Cloudy
11:32 AM 51.8 °F - 33.8 °F 50% 29.78 in 10.0 mi SSW 12.7 mph 18.4 mph N/A   Scattered Clouds
11:53 AM 53.6 °F - 33.8 °F 47% 29.77 in 10.0 mi SSW 13.8 mph 23.0 mph N/A   Scattered Clouds
12:13 PM 55.4 °F - 33.8 °F 44% 29.77 in 10.0 mi South 12.7 mph 21.9 mph N/A   Clear
12:53 PM 57.2 °F - 32.0 °F 38% 29.75 in 10.0 mi South 13.8 mph 21.9 mph N/A   Mostly Cloudy
1:13 PM 60.8 °F - 32.0 °F 34% 29.73 in 10.0 mi SSW 17.3 mph 26.5 mph N/A   Scattered Clouds
1:32 PM 60.8 °F - 30.2 °F 31% 29.71 in 10.0 mi South 20.7 mph 26.5 mph N/A   Scattered Clouds
1:53 PM 62.6 °F - 32.0 °F 32% 29.70 in 10.0 mi SSW 17.3 mph 26.5 mph N/A   Clear
2:12 PM 62.6 °F - 30.2 °F 30% 29.70 in 10.0 mi SSW 13.8 mph 25.3 mph N/A   Clear
2:33 PM 62.6 °F - 30.2 °F 30% 29.69 in 10.0 mi SSW 18.4 mph 31.1 mph N/A   Scattered Clouds
2:52 PM 62.6 °F - 30.2 °F 30% 29.68 in 10.0 mi SSW 20.7 mph 28.8 mph N/A   Scattered Clouds
3:13 PM 64.4 °F - 28.4 °F 26% 29.68 in 10.0 mi SSW 15.0 mph 27.6 mph N/A   Mostly Cloudy
3:32 PM 64.4 °F - 28.4 °F 26% 29.68 in 10.0 mi SW 13.8 mph 27.6 mph N/A   Mostly Cloudy
3:52 PM 64.4 °F - 28.4 °F 26% 29.68 in 10.0 mi SW 19.6 mph 34.5 mph N/A   Overcast
4:13 PM 64.4 °F - 28.4 °F 26% 29.67 in 10.0 mi SW 17.3 mph 27.6 mph N/A   Scattered Clouds
4:32 PM 64.4 °F - 28.4 °F 26% 29.67 in 10.0 mi SSW 18.4 mph 27.6 mph N/A   Scattered Clouds
4:52 PM 64.4 °F - 28.4 °F 26% 29.67 in 10.0 mi SW 21.9 mph 27.6 mph N/A   Mostly Cloudy
5:13 PM 64.4 °F - 28.4 °F 26% 29.67 in 10.0 mi SSW 15.0 mph 29.9 mph N/A   Mostly Cloudy
5:32 PM 64.4 °F - 30.2 °F 28% 29.67 in 10.0 mi SSW 13.8 mph 28.8 mph N/A   Scattered Clouds
5:53 PM 64.4 °F - 28.4 °F 26% 29.67 in 10.0 mi SSW 13.8 mph 28.8 mph N/A   Mostly Cloudy
6:13 PM 62.6 °F - 28.4 °F 27% 29.67 in 10.0 mi SSW 17.3 mph 26.5 mph N/A   Overcast
6:32 PM 62.6 °F - 28.4 °F 27% 29.67 in 10.0 mi SSW 15.0 mph 24.2 mph N/A   Mostly Cloudy
6:53 PM 62.6 °F - 30.2 °F 30% 29.69 in 10.0 mi SW 9.2 mph 18.4 mph N/A   Scattered Clouds
7:32 PM 62.6 °F - 30.2 °F 30% 29.69 in 10.0 mi SSW 10.4 mph 19.6 mph N/A   Overcast
7:53 PM 60.8 °F - 30.2 °F 31% 29.71 in 10.0 mi SW 8.1 mph 16.1 mph N/A   Overcast
8:33 PM 62.6 °F - 30.2 °F 30% 29.72 in 10.0 mi SW 10.4 mph 20.7 mph N/A   Overcast
9:12 PM 57.2 °F - 41.0 °F 55% 29.75 in 10.0 mi WNW 9.2 mph - N/A Rain Light Rain
9:33 PM 53.6 °F - 48.2 °F 82% 29.76 in 10.0 mi WSW 3.5 mph - 0.02 in Rain Light Rain
9:53 PM 51.8 °F - 48.2 °F 88% 29.78 in 10.0 mi West 3.5 mph - N/A Rain Light Rain
10:12 PM 51.8 °F - 46.4 °F 82% 29.79 in 10.0 mi WNW 6.9 mph - 0.02 in Rain Light Rain
10:52 PM 50.0 °F - 46.4 °F 87% 29.79 in 10.0 mi WNW 3.5 mph - N/A Rain Rain
11:33 PM 48.2 °F - 46.4 °F 93% 29.79 in 10.0 mi Calm Calm - 0.03 in Rain Rain
11:52 PM 48.2 °F - 46.4 °F 93% 29.80 in 7.0 mi SSW 3.5 mph - 0.01 in Rain Light Rain